Location: Paris
(48.6709°N, 2.3750°E)
Time: 20:00:14
(UTC+01:00)

ISS - Pass Details

Date: 04 November 2021
Orbit: 417 x 422 km, 51.6° (Epoch: 04 December)

Event Time Altitude Azimuth Distance (km) Brightness Sun altitude
Exits shadow 05:36:11 57° 27° (NNE) 497 -3.4 -21.0°
Drops below altitude 10° 05:39:21 10° 93° (E) 1,497 0.2 -20.5°
Enters shadow 06:33:21 -73° 294° (WNW) 12,633 3.6 -11.7°
